When you browse on this site, cookies collect data to enhance your experience and personalize the content and advertising you see.
Visit our Privacy Policy to learn more. By continuing to use the site, you agree to this use of cookies and data.
  • En España
  • Lista de países
  • Para 7 días
  • Temperatura del agua
  • El tiempo en el mapa
  • Informadores
  • user-avatar
    Iniciar sesión

    Tiempo cada hora Campobasso

    Hoy, 4 Junio, Jueves

    Tiempo Temperatura Precipitaciones Viento Presión Humedad
    00:00 +12°C° 0 mm 2 mps 695 mmHg 91%
    01:00 +10°C° 0 mm 3 mps 695 mmHg 92%
    02:00 +10°C° 0 mm 3 mps 695 mmHg 92%
    03:00 +10°C° 0 mm 3 mps 694 mmHg 93%
    04:00 +10°C° 0 mm 3 mps 694 mmHg 93%
    05:00 +11°C° 0 mm 3 mps 694 mmHg 89%
    06:00 +13°C° 0 mm 3 mps 694 mmHg 86%
    07:00 +14°C° 0 mm 4 mps 695 mmHg 82%
    08:00 +17°C° 0 mm 4 mps 695 mmHg 74%
    09:00 +17°C° 0 mm 5 mps 695 mmHg 67%
    10:00 +20°C° 0 mm 5 mps 696 mmHg 60%
    11:00 +20°C° 0 mm 6 mps 695 mmHg 57%
    12:00 +21°C° 0 mm 6 mps 695 mmHg 55%
    13:00 +21°C° 0 mm 6 mps 695 mmHg 53%
    14:00 +21°C° 0 mm 6 mps 695 mmHg 54%
    15:00 +21°C° 0 mm 6 mps 694 mmHg 54%
    16:00 +20°C° 0 mm 7 mps 694 mmHg 55%
    17:00 +19°C° 0 mm 6 mps 693 mmHg 61%
    18:00 +18°C° 0 mm 4 mps 693 mmHg 66%
    19:00 +16°C° 0 mm 3 mps 692 mmHg 71%
    20:00 +16°C° 0 mm 3 mps 692 mmHg 69%
    21:00 +16°C° 0 mm 3 mps 692 mmHg 68%
    22:00 +14°C° 0 mm 3 mps 692 mmHg 66%
    23:00 +14°C° 0 mm 4 mps 692 mmHg 69%

    Mañana, 5 Junio, Viernes

    Tiempo Temperatura Precipitaciones Viento Presión Humedad
    00:00 +13°C° 0 mm 4 mps 691 mmHg 71%
    01:00 +13°C° 0 mm 4 mps 691 mmHg 74%
    02:00 +13°C° 0.2 mm 5 mps 691 mmHg 79%
    03:00 +14°C° 0.2 mm 6 mps 690 mmHg 84%
    04:00 +14°C° 0.2 mm 7 mps 690 mmHg 90%
    05:00 +14°C° 1.2 mm 7 mps 690 mmHg 89%
    06:00 +15°C° 1.2 mm 7 mps 690 mmHg 88%
    07:00 +15°C° 1.2 mm 7 mps 690 mmHg 88%
    08:00 +15°C° 3 mm 6 mps 690 mmHg 89%
    09:00 +14°C° 3 mm 5 mps 690 mmHg 91%
    10:00 +14°C° 3 mm 4 mps 691 mmHg 92%
    11:00 +15°C° 1.4 mm 5 mps 691 mmHg 86%
    12:00 +16°C° 1.4 mm 5 mps 691 mmHg 80%
    13:00 +16°C° 1.4 mm 6 mps 691 mmHg 74%
    14:00 +17°C° 0.2 mm 6 mps 691 mmHg 71%
    15:00 +17°C° 0.2 mm 6 mps 691 mmHg 69%
    16:00 +17°C° 0.2 mm 6 mps 691 mmHg 67%
    17:00 +16°C° 0.1 mm 5 mps 691 mmHg 72%
    18:00 +15°C° 0.1 mm 5 mps 691 mmHg 77%
    19:00 +13°C° 0.1 mm 4 mps 691 mmHg 82%
    20:00 +12°C° 0 mm 4 mps 692 mmHg 84%
    21:00 +11°C° 0 mm 4 mps 692 mmHg 85%
    22:00 +10°C° 0 mm 3 mps 693 mmHg 87%
    23:00 +10°C° 0 mm 3 mps 693 mmHg 87%

    Pasado mañana, 6 Junio, Sábado

    Tiempo Temperatura Precipitaciones Viento Presión Humedad
    00:00 +9°C° 0 mm 3 mps 693 mmHg 87%
    01:00 +9°C° 0 mm 2 mps 693 mmHg 87%
    02:00 +9°C° 0 mm 2 mps 693 mmHg 88%
    03:00 +9°C° 0 mm 2 mps 693 mmHg 88%
    04:00 +9°C° 0 mm 2 mps 693 mmHg 89%
    05:00 +10°C° 0 mm 2 mps 694 mmHg 85%
    06:00 +13°C° 0 mm 2 mps 694 mmHg 82%
    07:00 +15°C° 0 mm 2 mps 695 mmHg 78%
    08:00 +16°C° 0 mm 2 mps 695 mmHg 72%
    09:00 +18°C° 0 mm 2 mps 696 mmHg 66%
    10:00 +19°C° 0 mm 2 mps 697 mmHg 61%
    11:00 +20°C° 0 mm 3 mps 697 mmHg 59%
    12:00 +21°C° 0 mm 3 mps 697 mmHg 57%
    13:00 +22°C° 0 mm 3 mps 697 mmHg 55%
    14:00 +22°C° 0 mm 3 mps 697 mmHg 57%
    15:00 +21°C° 0 mm 3 mps 697 mmHg 59%
    16:00 +21°C° 0 mm 3 mps 697 mmHg 61%
    17:00 +20°C° 0 mm 3 mps 696 mmHg 68%
    18:00 +18°C° 0 mm 3 mps 696 mmHg 75%
    19:00 +17°C° 0 mm 2 mps 696 mmHg 82%
    20:00 +16°C° 0 mm 2 mps 696 mmHg 86%
    21:00 +15°C° 0 mm 2 mps 697 mmHg 89%
    22:00 +13°C° 0 mm 2 mps 697 mmHg 92%
    23:00 +13°C° 0 mm 2 mps 697 mmHg 93%

    7 Junio, Domingo

    Tiempo Temperatura Precipitaciones Viento Presión Humedad
    00:00 +13°C° 0 mm 2 mps 696 mmHg 94%
    01:00 +13°C° 0 mm 2 mps 696 mmHg 94%
    02:00 +13°C° 0 mm 2 mps 696 mmHg 95%
    03:00 +12°C° 0 mm 2 mps 696 mmHg 95%
    04:00 +12°C° 0 mm 2 mps 696 mmHg 96%
    05:00 +14°C° 0 mm 2 mps 697 mmHg 92%
    06:00 +15°C° 0 mm 2 mps 697 mmHg 89%
    07:00 +16°C° 0 mm 2 mps 697 mmHg 85%
    08:00 +17°C° 0 mm 3 mps 698 mmHg 79%
    09:00 +19°C° 0 mm 3 mps 698 mmHg 72%
    10:00 +20°C° 0 mm 4 mps 699 mmHg 66%
    11:00 +21°C° 0 mm 4 mps 699 mmHg 63%
    12:00 +22°C° 0 mm 5 mps 699 mmHg 61%
    13:00 +23°C° 0 mm 5 mps 699 mmHg 59%
    14:00 +22°C° 0 mm 5 mps 698 mmHg 61%
    15:00 +22°C° 0 mm 5 mps 698 mmHg 62%
    16:00 +21°C° 0 mm 5 mps 698 mmHg 64%
    17:00 +20°C° 0 mm 4 mps 698 mmHg 71%
    18:00 +19°C° 0 mm 4 mps 698 mmHg 77%
    19:00 +17°C° 0 mm 3 mps 697 mmHg 84%
    20:00 +16°C° 0 mm 3 mps 697 mmHg 86%
    21:00 +16°C° 0 mm 3 mps 697 mmHg 88%
    22:00 +14°C° 0 mm 3 mps 697 mmHg 90%
    23:00 +13°C° 0 mm 3 mps 697 mmHg 89%

    8 Junio, Lunes

    Tiempo Temperatura Precipitaciones Viento Presión Humedad
    00:00 +14°C° 0 mm 2 mps 697 mmHg 88%
    01:00 +14°C° 0 mm 2 mps 696 mmHg 87%
    02:00 +13°C° 0 mm 3 mps 696 mmHg 86%
    03:00 +13°C° 0 mm 3 mps 696 mmHg 86%
    04:00 +13°C° 0 mm 3 mps 696 mmHg 85%
    05:00 +14°C° 0 mm 4 mps 696 mmHg 84%
    06:00 +15°C° 0 mm 4 mps 697 mmHg 83%
    07:00 +16°C° 0 mm 5 mps 697 mmHg 81%
    08:00 +17°C° 0.1 mm 5 mps 697 mmHg 80%
    09:00 +17°C° 0.1 mm 6 mps 698 mmHg 78%
    10:00 +19°C° 0.1 mm 6 mps 698 mmHg 77%
    11:00 +19°C° 0.1 mm 6 mps 698 mmHg 74%
    12:00 +20°C° 0.1 mm 6 mps 698 mmHg 72%
    13:00 +21°C° 0.1 mm 6 mps 698 mmHg 69%
    14:00 +21°C° 0 mm 6 mps 698 mmHg 68%
    15:00 +21°C° 0 mm 6 mps 697 mmHg 67%
    16:00 +21°C° 0 mm 5 mps 697 mmHg 66%
    17:00 +20°C° 0 mm 4 mps 697 mmHg 71%
    18:00 +19°C° 0 mm 4 mps 697 mmHg 77%
    19:00 +17°C° 0 mm 3 mps 697 mmHg 82%
    20:00 +16°C° 0 mm 3 mps 697 mmHg 86%
    21:00 +15°C° 0 mm 2 mps 697 mmHg 89%
    22:00 +14°C° 0 mm 2 mps 697 mmHg 92%
    23:00 +14°C° 0 mm 2 mps 697 mmHg 93%

    9 Junio, Martes

    Tiempo Temperatura Precipitaciones Viento Presión Humedad
    00:00 +14°C° 0 mm 2 mps 697 mmHg 93%
    01:00 +14°C° 0 mm 2 mps 696 mmHg 93%
    02:00 +13°C° 0 mm 2 mps 696 mmHg 93%
    03:00 +13°C° 0 mm 2 mps 696 mmHg 93%
    04:00 +13°C° 0 mm 2 mps 696 mmHg 93%
    05:00 +15°C° 0 mm 2 mps 696 mmHg 89%
    06:00 +16°C° 0 mm 2 mps 697 mmHg 85%
    07:00 +18°C° 0 mm 2 mps 698 mmHg 81%
    08:00 +19°C° 0 mm 3 mps 698 mmHg 73%
    09:00 +20°C° 0 mm 4 mps 698 mmHg 65%
    10:00 +21°C° 0 mm 5 mps 699 mmHg 57%
    11:00 +21°C° 0 mm 5 mps 699 mmHg 53%
    12:00 +22°C° 0 mm 5 mps 699 mmHg 49%
    13:00 +22°C° 0 mm 5 mps 699 mmHg 45%
    14:00 +22°C° 0 mm 5 mps 699 mmHg 49%
    15:00 +21°C° 0 mm 5 mps 699 mmHg 52%
    16:00 +21°C° 0 mm 4 mps 699 mmHg 56%
    17:00 +19°C° 0 mm 4 mps 699 mmHg 63%
    18:00 +18°C° 0 mm 3 mps 699 mmHg 71%
    19:00 +16°C° 0 mm 2 mps 698 mmHg 78%
    20:00 +15°C° 0 mm 2 mps 698 mmHg 82%
    21:00 +13°C° 0 mm 1 mps 699 mmHg 86%
    22:00 +12°C° 0 mm 1 mps 699 mmHg 90%
    23:00 +12°C° 0 mm 1 mps 698 mmHg 91%
    Mostrar más